This demonstration page uses our WeatherBlox Daily Observations layout. Learn more.

39.01783, -85.05884

Hourly Observations for November 18, 2019

Temp ( °F °C ) Dew Point ( °F °C ) Humidity (%) Winds ( mph kmh ) Pressure ( in mb ) Visibility ( mi km ) Precip ( " mm )
12:52 am 00:52 Cloudy 35 1.7 29 -1.7 78 78 Calm 29.83 1010 8 12.87472 0 0
1:52 am 01:52 Cloudy 33 0.6 28 -2.2 82 82 WSW 5 7 29.82 1010 8 12.87472 0 0
2:52 am 02:52 Mostly Cloudy 33 0.6 28 -2.2 82 82 WSW 3 6 29.81 1010 8 12.87472 0 0
3:52 am 03:52 Cloudy 34 1.1 29 -1.7 82 82 SSW 3 6 29.8 1009 9 14.48406 0 0
4:52 am 04:52 Cloudy 34 1.1 30 -1.1 85 85 S 3 6 29.79 1009 7 11.26538 0 0
5:52 am 05:52 Cloudy 34 1.1 30 -1.1 85 85 SW 3 6 29.79 1009 7 11.26538 0 0
6:52 am 06:52 Mostly Cloudy 33 0.6 29 -1.7 85 85 SSE 3 6 29.79 1009 7 11.26538 0 0
7:52 am 07:52 Cloudy with Haze 35 1.7 30 -1.1 82 82 Calm 29.81 1010 6 9.65604 0 0
8:52 am 08:52 Cloudy with Mist and Fog 36 2.2 32 0 86 86 S 5 7 29.82 1010 5 8.0467 0 0
9:52 am 09:52 Cloudy 39 3.9 32 0 76 76 SW 5 7 29.81 1010 7 11.26538 0 0
10:52 am 10:52 Cloudy 42 5.6 33 0.6 71 71 VRB 3 6 29.8 1009 7 11.26538 0 0
11:52 am 11:52 Cloudy with Haze 45 7.2 32 0 61 61 WSW 3 6 29.78 1009 6 9.65604 0 0
12:52 pm 12:52 Cloudy 45 7.2 33 0.6 63 63 W 8 13 29.77 1008 7 11.26538 0 0
1:28 pm 13:28 Cloudy 45 7.2 34 1.1 66 66 WSW 7 11 29.77 1008 7 11.26538 0 0
1:52 pm 13:52 Cloudy with Haze 44 6.7 34 1.1 68 68 W 7 11 29.75 1008 6 9.65604 0 0
3:52 pm 15:52 Cloudy with Haze 43 6.1 36 2.2 76 76 W 7 11 29.76 1008 5 8.0467 0.001 0.001
4:52 pm 16:52 Cloudy with Haze 42 5.6 35 1.7 76 76 W 8 13 29.77 1008 4 6.43736 0 0
5:52 pm 17:52 Cloudy with Mist and Fog 41 5 37 2.8 86 86 WSW 5 7 29.79 1009 4 6.43736 0 0
6:52 pm 18:52 Cloudy 41 5 36 2.2 82 82 SW 7 11 29.8 1009 7 11.26538 0 0
7:41 pm 19:41 Cloudy with Light Drizzle 40 4.4 36 2.2 86 86 WSW 6 9 29.83 1010 5 8.0467 0.001 0.001
7:52 pm 19:52 Cloudy with Mist and Fog 40 4.4 37 2.8 89 89 WSW 7 11 29.81 1010 5 8.0467 0.001 0.001
8:52 pm 20:52 Cloudy with Light Drizzle 39 3.9 37 2.8 93 93 W 6 9 29.8 1009 4 6.43736 0.001 0.001
9:16 pm 21:16 Cloudy with Mist and Fog 39 3.9 36 2.2 89 89 W 7 11 29.83 1010 6 9.65604 0.001 0.001
9:39 pm 21:39 Cloudy with Mist and Fog 39 3.9 36 2.2 89 89 WSW 5 7 29.82 1010 5 8.0467 0.001 0.001
9:52 pm 21:52 Cloudy with Mist and Fog 39 3.9 36 2.2 89 89 WSW 6 9 29.8 1009 5 8.0467 0.001 0.001
10:52 pm 22:52 Cloudy with Light Drizzle 39 3.9 36 2.2 89 89 SW 8 13 29.8 1009 6 9.65604 0.001 0.001
11:52 pm 23:52 Cloudy 38 3.3 35 1.7 89 89 SW 6 9 29.8 1009 7 11.26538 0.001 0.001

Powered by AerisWeather